When you browse on this site, cookies collect data to enhance your experience and personalize the content and advertising you see.
Visit our Privacy Policy to learn more. By continuing to use the site, you agree to this use of cookies and data.
  • In United Kingdom
  • List of Countries
  • For 7 days
  • Water Temperature
  • Weather Map
  • Weather Widgets
  • user-avatar
    Login

    Hourly Weather Cardiff

    Today, 23 October, Wednesday

    Time Temperature Precipitation Wind Pressure Humidity
    00:00 +9°C° 0 mm 1 mps 762 mmHg 90%
    01:00 +9°C° 0 mm 1 mps 762 mmHg 91%
    02:00 +9°C° 0 mm 1 mps 761 mmHg 92%
    03:00 +9°C° 0 mm 1 mps 760 mmHg 93%
    04:00 +9°C° 0 mm 1 mps 760 mmHg 94%
    05:00 +9°C° 0 mm 1 mps 760 mmHg 95%
    06:00 +8°C° 0 mm 2 mps 760 mmHg 96%
    07:00 +8°C° 0 mm 2 mps 759 mmHg 95%
    08:00 +9°C° 0 mm 2 mps 759 mmHg 94%
    09:00 +10°C° 0 mm 2 mps 759 mmHg 92%
    10:00 +12°C° 0 mm 2 mps 758 mmHg 90%
    11:00 +12°C° 0 mm 3 mps 758 mmHg 87%
    12:00 +13°C° 0 mm 3 mps 757 mmHg 84%
    13:00 +13°C° 0 mm 3 mps 756 mmHg 84%
    14:00 +13°C° 0 mm 3 mps 756 mmHg 85%
    15:00 +14°C° 0 mm 2 mps 755 mmHg 85%
    16:00 +13°C° 0.1 mm 2 mps 754 mmHg 87%
    17:00 +12°C° 0.1 mm 2 mps 754 mmHg 90%
    18:00 +12°C° 0.1 mm 2 mps 754 mmHg 92%
    19:00 +10°C° 0.1 mm 2 mps 754 mmHg 93%
    20:00 +11°C° 0.1 mm 1 mps 753 mmHg 94%
    21:00 +11°C° 0.1 mm 1 mps 753 mmHg 95%
    22:00 +11°C° 0 mm 1 mps 753 mmHg 95%
    23:00 +11°C° 0 mm 1 mps 752 mmHg 94%

    Tomorrow, 24 October, Thursday

    Time Temperature Precipitation Wind Pressure Humidity
    00:00 +10°C° 0 mm 1 mps 752 mmHg 94%
    01:00 +10°C° 0 mm 1 mps 751 mmHg 94%
    02:00 +10°C° 0 mm 1 mps 751 mmHg 93%
    03:00 +10°C° 0 mm 1 mps 750 mmHg 93%
    04:00 +9°C° 0 mm 1 mps 750 mmHg 92%
    05:00 +8°C° 0 mm 2 mps 750 mmHg 91%
    06:00 +8°C° 0 mm 2 mps 750 mmHg 90%
    07:00 +9°C° 0.1 mm 2 mps 750 mmHg 90%
    08:00 +9°C° 0.1 mm 2 mps 750 mmHg 91%
    09:00 +10°C° 0.1 mm 2 mps 750 mmHg 91%
    10:00 +11°C° 0.1 mm 3 mps 750 mmHg 87%
    11:00 +12°C° 0.1 mm 5 mps 750 mmHg 82%
    12:00 +13°C° 0.1 mm 6 mps 750 mmHg 78%
    13:00 +13°C° 0.1 mm 6 mps 751 mmHg 78%
    14:00 +12°C° 0.1 mm 7 mps 751 mmHg 77%
    15:00 +12°C° 0.1 mm 7 mps 752 mmHg 77%
    16:00 +10°C° 0.1 mm 7 mps 752 mmHg 81%
    17:00 +9°C° 0.1 mm 6 mps 753 mmHg 84%
    18:00 +8°C° 0.1 mm 6 mps 754 mmHg 88%
    19:00 +8°C° 0 mm 5 mps 755 mmHg 88%
    20:00 +7°C° 0 mm 5 mps 756 mmHg 87%
    21:00 +6°C° 0 mm 4 mps 757 mmHg 87%
    22:00 +6°C° 0 mm 4 mps 757 mmHg 83%
    23:00 +7°C° 0 mm 3 mps 758 mmHg 79%

    Day after tomorrow, 25 October, Friday

    Time Temperature Precipitation Wind Pressure Humidity
    00:00 +7°C° 0 mm 3 mps 758 mmHg 75%
    01:00 +7°C° 0 mm 2 mps 759 mmHg 76%
    02:00 +7°C° 0 mm 2 mps 759 mmHg 77%
    03:00 +7°C° 0 mm 2 mps 759 mmHg 77%
    04:00 +7°C° 0 mm 2 mps 759 mmHg 79%
    05:00 +7°C° 0 mm 2 mps 759 mmHg 80%
    06:00 +6°C° 0 mm 2 mps 759 mmHg 82%
    07:00 +7°C° 0.3 mm 2 mps 758 mmHg 85%
    08:00 +7°C° 0.3 mm 3 mps 758 mmHg 88%
    09:00 +8°C° 0.3 mm 3 mps 757 mmHg 91%
    10:00 +8°C° 0.8 mm 5 mps 756 mmHg 92%
    11:00 +10°C° 0.8 mm 7 mps 754 mmHg 94%
    12:00 +11°C° 0.8 mm 9 mps 753 mmHg 95%
    13:00 +12°C° 0.5 mm 11 mps 752 mmHg 92%
    14:00 +13°C° 0.5 mm 13 mps 750 mmHg 90%
    15:00 +14°C° 0.5 mm 15 mps 749 mmHg 88%
    16:00 +14°C° 0.8 mm 15 mps 749 mmHg 89%
    17:00 +14°C° 0.8 mm 15 mps 749 mmHg 90%
    18:00 +14°C° 0.8 mm 15 mps 749 mmHg 92%
    19:00 +13°C° 1.4 mm 13 mps 749 mmHg 92%
    20:00 +11°C° 1.4 mm 11 mps 750 mmHg 91%
    21:00 +10°C° 1.4 mm 9 mps 751 mmHg 91%
    22:00 +9°C° 0.1 mm 7 mps 752 mmHg 90%
    23:00 +8°C° 0.1 mm 6 mps 753 mmHg 90%

    26 October, Saturday

    Time Temperature Precipitation Wind Pressure Humidity
    00:00 +7°C° 0.1 mm 5 mps 753 mmHg 89%
    01:00 +7°C° 0.1 mm 4 mps 754 mmHg 89%
    02:00 +7°C° 0.1 mm 4 mps 755 mmHg 89%
    03:00 +7°C° 0.1 mm 4 mps 756 mmHg 90%
    04:00 +6°C° 0 mm 4 mps 756 mmHg 89%
    05:00 +5°C° 0 mm 4 mps 757 mmHg 88%
    06:00 +5°C° 0 mm 4 mps 757 mmHg 87%
    07:00 +5°C° 0 mm 4 mps 758 mmHg 83%
    08:00 +5°C° 0 mm 4 mps 759 mmHg 79%
    09:00 +7°C° 0 mm 3 mps 759 mmHg 75%
    10:00 +7°C° 0 mm 4 mps 760 mmHg 73%
    11:00 +8°C° 0 mm 5 mps 760 mmHg 70%
    12:00 +9°C° 0 mm 6 mps 760 mmHg 68%
    13:00 +8°C° 0 mm 6 mps 760 mmHg 68%
    14:00 +8°C° 0 mm 6 mps 760 mmHg 69%
    15:00 +8°C° 0 mm 6 mps 761 mmHg 69%
    16:00 +7°C° 0 mm 6 mps 761 mmHg 72%
    17:00 +6°C° 0 mm 5 mps 762 mmHg 74%
    18:00 +5°C° 0 mm 5 mps 762 mmHg 76%
    19:00 +3°C° 0 mm 5 mps 763 mmHg 77%
    20:00 +3°C° 0 mm 5 mps 763 mmHg 79%
    21:00 +3°C° 0 mm 5 mps 764 mmHg 80%
    22:00 +4°C° 0 mm 4 mps 764 mmHg 80%
    23:00 +3°C° 0 mm 3 mps 764 mmHg 81%

    27 October, Sunday

    Time Temperature Precipitation Wind Pressure Humidity
    00:00 +3°C° 0 mm 3 mps 765 mmHg 81%
    01:00 +4°C° 0 mm 2 mps 765 mmHg 82%
    02:00 +4°C° 0 mm 2 mps 765 mmHg 84%
    03:00 +4°C° 0 mm 1 mps 765 mmHg 85%
    04:00 +5°C° 0 mm 1 mps 766 mmHg 84%
    05:00 +4°C° 0 mm 2 mps 766 mmHg 83%
    06:00 +4°C° 0 mm 2 mps 766 mmHg 81%
    07:00 +5°C° 0 mm 2 mps 766 mmHg 79%
    08:00 +5°C° 0 mm 3 mps 766 mmHg 77%
    09:00 +5°C° 0 mm 3 mps 767 mmHg 75%
    10:00 +6°C° 0 mm 4 mps 767 mmHg 75%
    11:00 +7°C° 0 mm 5 mps 766 mmHg 74%
    12:00 +7°C° 0 mm 5 mps 766 mmHg 74%
    13:00 +7°C° 0 mm 5 mps 766 mmHg 76%
    14:00 +7°C° 0 mm 5 mps 766 mmHg 77%
    15:00 +7°C° 0 mm 5 mps 766 mmHg 79%
    16:00 +7°C° 0.2 mm 5 mps 765 mmHg 81%
    17:00 +5°C° 0.2 mm 6 mps 765 mmHg 82%
    18:00 +5°C° 0.2 mm 7 mps 765 mmHg 84%
    19:00 +5°C° 0.6 mm 7 mps 765 mmHg 85%
    20:00 +4°C° 0.6 mm 7 mps 765 mmHg 85%
    21:00 +4°C° 0.6 mm 8 mps 765 mmHg 86%
    22:00 +4°C° 0.9 mm 8 mps 765 mmHg 88%
    23:00 +4°C° 0.9 mm 8 mps 765 mmHg 89%

    28 October, Monday

    Time Temperature Precipitation Wind Pressure Humidity
    00:00 +3°C° 0.9 mm 9 mps 765 mmHg 91%
    01:00 +3°C° 0.7 mm 9 mps 764 mmHg 91%
    02:00 +3°C° 0.7 mm 9 mps 764 mmHg 92%
    03:00 +3°C° 0.7 mm 9 mps 763 mmHg 92%
    04:00 +3°C° 1.1 mm 9 mps 763 mmHg 92%
    05:00 +3°C° 1.1 mm 9 mps 763 mmHg 93%
    06:00 +4°C° 1.1 mm 8 mps 763 mmHg 93%
    07:00 +4°C° 1.6 mm 8 mps 763 mmHg 94%
    08:00 +5°C° 1.6 mm 9 mps 763 mmHg 94%
    09:00 +5°C° 1.6 mm 9 mps 763 mmHg 94%
    10:00 +5°C° 1.1 mm 8 mps 763 mmHg 94%
    11:00 +5°C° 1.1 mm 8 mps 763 mmHg 93%
    12:00 +6°C° 1.1 mm 8 mps 763 mmHg 93%
    13:00 +6°C° 0.2 mm 8 mps 763 mmHg 92%
    14:00 +6°C° 0.2 mm 8 mps 763 mmHg 92%
    15:00 +6°C° 0.2 mm 8 mps 763 mmHg 91%
    16:00 +6°C° 0.2 mm 8 mps 762 mmHg 91%
    17:00 +6°C° 0.2 mm 8 mps 762 mmHg 91%
    18:00 +6°C° 0.2 mm 8 mps 762 mmHg 90%
    19:00 +6°C° 0.1 mm 8 mps 762 mmHg 89%
    20:00 +6°C° 0.1 mm 7 mps 762 mmHg 88%
    21:00 +6°C° 0.1 mm 7 mps 763 mmHg 87%
    22:00 +6°C° 0.1 mm 7 mps 763 mmHg 88%
    23:00 +6°C° 0.1 mm 7 mps 762 mmHg 89%

    29 October, Tuesday

    Time Temperature Precipitation Wind Pressure Humidity
    00:00 +6°C° 0.1 mm 7 mps 762 mmHg 90%
    01:00 +6°C° 0 mm 7 mps 762 mmHg 90%
    02:00 +7°C° 0 mm 6 mps 762 mmHg 91%
    03:00 +7°C° 0 mm 6 mps 762 mmHg 91%
    04:00 +6°C° 0.6 mm 7 mps 762 mmHg 92%
    05:00 +6°C° 0.6 mm 7 mps 762 mmHg 93%
    06:00 +6°C° 0.6 mm 7 mps 762 mmHg 94%
    07:00 +6°C° 0.3 mm 7 mps 763 mmHg 93%
    08:00 +6°C° 0.3 mm 7 mps 763 mmHg 93%
    09:00 +7°C° 0.3 mm 6 mps 763 mmHg 92%
    10:00 +8°C° 0 mm 6 mps 763 mmHg 91%
    11:00 +8°C° 0 mm 6 mps 764 mmHg 90%
    12:00 +9°C° 0 mm 6 mps 764 mmHg 88%
    13:00 +9°C° 0 mm 6 mps 764 mmHg 88%
    14:00 +9°C° 0 mm 6 mps 764 mmHg 87%
    15:00 +9°C° 0 mm 5 mps 764 mmHg 87%
    16:00 +9°C° 0 mm 5 mps 764 mmHg 88%
    17:00 +8°C° 0 mm 5 mps 764 mmHg 89%
    18:00 +8°C° 0 mm 5 mps 764 mmHg 90%
    19:00 +8°C° 0 mm 5 mps 765 mmHg 90%
    20:00 +7°C° 0 mm 5 mps 765 mmHg 90%
    21:00 +7°C° 0 mm 4 mps 765 mmHg 90%
    22:00 +7°C° 0 mm 4 mps 765 mmHg 90%
    23:00 +7°C° 0 mm 4 mps 765 mmHg 91%
    Show more